Retour au catalogue

FENGYUN 1C DEB

ActifSSO
NORAD 37054·DEBRIS·🇨🇳 China

Lancé May 10, 1999 depuis Taiyuan Satellite Launch Center

Loading…

Prochains Passages (prochaines 24 heures)

TLE

VieillissantSource: Space-Track

Époque: Sep 9, 2026, 16:19 UTC

1 37054U 99025EEN 26252.68030746  .00000351  00000-0  17625-3 0  9998
2 37054  98.5782 231.3724 0100859  42.4855 318.4073 14.19773546682732

Suivez FENGYUN 1C DEB en temps réel avec AllMySat

Download on the App Store